This demonstration page uses our WeatherBlox Daily Observations layout. Learn more.

Left ArrowRight Arrow

Hourly Observations for March 5, 2020

Temp ( °F °C ) Dew Point ( °F °C ) Humidity (%) Winds ( mph kmh ) Pressure ( in mb ) Visibility ( mi km ) Precip ( " mm )
12:53 am 00:53 Clear 30 -1.1 26 -3.3 85 85 N N/A 30.16 1021 10 16.0934 N/A
1:53 am 01:53 Clear 29 -1.7 25 -3.9 85 85 N N/A 30.15 1021 10 16.0934 N/A
2:53 am 02:53 Clear 28 -2.2 25 -3.9 88 88 N N/A 30.14 1021 10 16.0934 N/A
3:53 am 03:53 Clear 25 -3.9 22 -5.6 88 88 N N/A 30.15 1021 10 16.0934 N/A
4:53 am 04:53 Clear 25 -3.9 22 -5.6 88 88 N N/A 30.16 1021 8 12.87472 N/A
5:53 am 05:53 Clear 26 -3.3 23 -5 88 88 N N/A 30.17 1022 10 16.0934 N/A
6:53 am 06:53 Clear 25 -3.9 21 -6.1 85 85 N N/A 30.16 1021 10 16.0934 N/A
7:53 am 07:53 Sunny 27 -2.8 24 -4.4 89 89 N N/A 30.16 1021 10 16.0934 N/A
8:53 am 08:53 Sunny 34 1.1 29 -1.7 82 82 N N/A 30.15 1021 10 16.0934 N/A
9:53 am 09:53 Sunny 42 5.6 28 -2.2 58 58 VRB 6 9 30.13 1020 10 16.0934 N/A
10:53 am 10:53 Sunny 46 7.8 27 -2.8 47 47 VRB 6 9 30.14 1021 10 16.0934 N/A
11:53 am 11:53 Sunny 48 8.9 26 -3.3 42 42 VRB 5 7 30.12 1020 10 16.0934 N/A
12:53 pm 12:53 Sunny 51 10.6 26 -3.3 38 38 VRB 7 11 30.07 1018 10 16.0934 N/A
1:53 pm 13:53 Sunny 57 13.9 25 -3.9 29 29 undefined N/A 30.02 1017 10 16.0934 N/A
2:53 pm 14:53 Sunny 59 15 23 -5 25 25 VRB 6 9 29.98 1015 10 16.0934 N/A
3:53 pm 15:53 Sunny 60 15.6 24 -4.4 25 25 VRB 7 11 29.96 1015 10 16.0934 N/A
4:53 pm 16:53 Sunny 60 15.6 22 -5.6 23 23 VRB 6 9 29.93 1014 10 16.0934 N/A
5:53 pm 17:53 Sunny 58 14.4 20 -6.7 23 23 WSW 8 13 29.93 1014 10 16.0934 N/A
6:53 pm 18:53 Clear 50 10 21 -6.1 32 32 W 5 7 29.94 1014 10 16.0934 N/A
7:53 pm 19:53 Clear 39 3.9 28 -2.2 65 65 N N/A 29.96 1014 10 16.0934 N/A
8:53 pm 20:53 Cloudy with Light Rain 51 10.6 30 -1.1 44 44 WNW 12 19 29.97 1015 10 16.0934 0.001 0.001
9:53 pm 21:53 Mostly Cloudy 51 10.6 33 0.6 50 50 WNW 10 17 29.96 1015 10 16.0934 0.001 0.001
10:53 pm 22:53 Clear 50 10 29 -1.7 44 44 WNW 15 24 29.96 1015 10 16.0934 N/A
11:53 pm 23:53 Clear 47 8.3 29 -1.7 50 50 WNW 8 13 29.97 1015 10 16.0934 N/A

Powered by AerisWeather